Date,TemperatureHighF,TemperatureAvgF,TemperatureLowF,DewpointHighF,DewpointAvgF,DewpointLowF,HumidityHigh,HumidityAvg,HumidityLow,PressureMaxIn,PressureMinIn,WindSpeedMaxMPH,WindSpeedAvgMPH,GustSpeedMaxMPH,PrecipitationSumIn
2013-5-1,51.4,47.8,41.7,43.9,39.5,34.5,92,74,54,30.29,30.11,28,14,28,0.00
2013-5-2,50.5,44.3,35.2,46.5,39.3,31.7,91,83,69,30.29,29.99,25,8,25,0.01
2013-5-3,50.9,48.6,43.0,48.7,46.0,38.5,95,91,83,29.99,29.67,28,17,28,0.01
2013-5-4,50.9,46.1,40.9,45.2,40.9,36.3,89,82,75,29.89,29.76,34,17,34,0.00
2013-5-5,55.0,51.8,49.2,52.1,48.6,44.6,96,89,79,30.04,29.89,20,9,20,0.06
2013-5-6,53.2,51.2,49.5,50.0,48.8,47.7,94,91,87,30.06,29.99,21,8,21,0.00
2013-5-7,67.8,56.1,44.4,53.0,48.4,43.1,96,77,54,30.07,29.83,15,4,15,0.00
2013-5-8,60.2,53.2,49.5,53.2,47.6,43.3,92,82,59,29.83,29.43,31,16,31,0.00
2013-5-9,51.6,48.5,46.3,46.4,43.8,41.5,91,84,74,29.52,29.34,25,11,25,0.01
2013-5-10,50.7,47.1,41.1,47.6,43.8,39.1,94,88,80,29.64,29.42,29,7,29,0.05
2013-5-11,51.7,47.4,43.9,46.3,43.7,41.5,95,87,79,29.77,29.48,32,14,32,0.09
2013-5-12,52.2,47.4,43.5,48.6,43.9,37.7,95,88,79,29.80,29.59,36,13,36,0.06
2013-5-13,49.0,43.8,38.3,43.3,39.3,35.8,92,84,68,29.64,29.44,40,19,40,0.02
2013-5-14,51.9,45.9,42.0,44.3,41.2,37.8,94,84,60,29.44,29.36,34,16,34,0.02
2013-5-15,56.7,48.1,41.8,43.5,39.6,34.8,90,73,46,29.44,29.33,29,10,29,0.00
2013-5-16,54.2,47.5,40.7,44.1,40.3,35.3,91,77,57,29.70,29.41,17,7,17,0.07
2013-5-17,62.6,52.7,42.8,45.0,40.0,34.6,88,64,36,29.90,29.70,14,5,14,0.00
2013-5-18,60.9,53.3,48.3,56.7,50.2,42.4,96,89,72,29.88,29.70,16,4,16,0.46
2013-5-19,58.4,53.7,50.3,54.9,51.7,48.9,96,93,86,30.00,29.81,13,4,13,0.05
2013-5-20,70.0,60.0,53.8,58.2,54.2,49.9,95,82,64,30.05,29.94,24,10,24,0.00
2013-5-21,61.5,54.6,48.2,49.8,45.3,42.7,84,71,53,30.13,30.05,24,13,24,0.00
2013-5-22,54.2,49.2,40.9,44.9,39.7,33.8,89,71,49,30.13,30.06,34,16,34,0.01
2013-5-23,50.1,45.7,41.9,38.1,36.2,32.9,81,70,54,30.06,29.96,30,16,30,0.00
2013-5-24,59.9,52.3,43.1,45.1,37.8,32.5,83,59,41,30.22,29.97,22,8,22,0.00
2013-5-25,57.9,48.6,40.3,45.8,41.8,38.2,93,78,58,30.22,30.16,17,4,17,0.00
2013-5-26,57.9,57.9,57.9,44.1,44.1,44.1,60,60,60,30.16,30.16,9,9,9,0.00
2013-5-27,57.9,52.1,50.0,48.4,46.6,44.1,92,82,60,30.16,29.42,20,10,20,0.00
2013-5-28,56.2,52.2,47.0,50.1,46.7,43.6,89,82,69,29.80,29.50,18,8,18,0.01
2013-5-29,68.3,57.6,43.5,53.8,47.4,39.9,88,70,52,29.95,29.80,14,4,14,0.00
2013-5-30,70.3,61.6,54.6,52.5,48.6,43.1,80,63,48,30.08,29.93,17,6,17,0.00
2013-5-31,57.4,53.1,47.7,51.7,46.9,41.7,91,80,64,30.22,30.08,25,11,25,0.00